FENGYUN 1C DEB, 39540

Orbit data source: Space-Track

FENGYUN 1C DEB, 39540 is space debris in LEO originally from a launch on Mon, 10 May 1999 UTC launched from the Taiyaun Space Center, China (TSC). Fengyun 1C debris stems from the Chinese weather satellite Fengyun-1C, which was intentionally destroyed by a Chinese anti-satellite missile in 2007. This event dramatically increased the amount of space debris, with thousands of trackable fragments posing hazards to satellites and human spaceflight. The Fengyun 1C debris cloud has become a focal point in discussions about space sustainability and the need for international regulations to prevent the creation of new debris.

Loading next visibility...
Identifier
39540, 1999-025EWH
Orbit
LEO
Country
Flag of CNCN / PRC
Related business
Manufacturer
Unknown
Mission
Spacecraft
Bus & Motor
Unknown
Mass
Unknown
Launch date (UTC)
1999-05-10 (27 years ago)
Launch vehicle
Unknown
Launch site
Taiyaun Space Center, China (TSC)
Object type
Payload
Rocket body
Debris
Shape & HBR
Unknown shape, 0.1 m
Radar Cross Section
Small (<0.1 m²)

Expand to show TLE details & history
Last TLE update: 2 weeks ago

TLE from 2 weeks ago
0 FENGYUN 1C DEB
1 39540U 99025EWH 26089.07522420  .00002459  00000-0  30740-2 0  9999
2 39540 106.1836  24.7043 0399784 116.6854 267.3916 13.37340307705332
Epoch: 2026-03-30T01:48Z
TLE epoch observation values (Epoch: 2026-03-30T01:48:19.370Z)
Latitude
18.71542°
Longitude
164.53799°
Altitude
1,146.743 km
Speed
7.269 km/s
True Right ascension
01h 16m 21s
True Declination
18° 36' 60"
Sunlit
Object was in daylight at epoch
Visualization orbit readout
Latitude
Unknown
Longitude
Unknown
Altitude
Unknown
Speed
Unknown
Apparent Right ascension
Unknown
Apparent Declination
Unknown
Sunlit
N/A
Visualization observer readout
Local Sidereal Time
05:33:11
Azimuth
Unknown
Elevation
Unknown
Doppler factor
Unknown
Orbital elements
Apogee altitude
1,416.592 km
Perigee altitude
817.309 km
Semi-major axis
7,495.087 km
Eccentricity
0.03998
Inclination
106.1836°
RAAN
24.7043°
Arg. of periapsis
116.6854°
True anomaly
262.83037°
Mean anomaly
267.3916°
Eccentric anomaly
265.10935°
Mean motion
3.34486 °/min
Orbital period
107.63 mins
BSTAR
0.003074
Loading maneuver chart data...
Computing Atmospheric mass density...

Documentation

Showing up to 5 results
|